owner,sensor,date,latitude,longitude,vertical_datum,sea_water_temperature,qcFlag
QuarterNorth,ioos:station:wmo:42866:2,2023-05-01T00:06:00Z,28.0188,-88.7569,30.0,23.0,11111222
QuarterNorth,ioos:station:wmo:42866:2,2023-05-01T00:16:00Z,28.0188,-88.7569,30.0,23.0,11111222
QuarterNorth,ioos:station:wmo:42866:2,2023-05-01T00:26:00Z,28.0188,-88.7569,30.0,23.0,11111222
QuarterNorth,ioos:station:wmo:42866:2,2023-05-01T00:36:00Z,28.0188,-88.7569,30.0,23.1,11111222
QuarterNorth,ioos:station:wmo:42866:2,2023-05-01T00:46:00Z,28.0188,-88.7569,30.0,23.1,11111222
QuarterNorth,ioos:station:wmo:42866:2,2023-05-01T00:55:00Z,28.0188,-88.7569,30.0,23.1,11111222
QuarterNorth,ioos:station:wmo:42866:2,2023-05-01T01:05:00Z,28.0188,-88.7569,30.0,23.1,11111222
QuarterNorth,ioos:station:wmo:42866:2,2023-05-01T01:16:00Z,28.0188,-88.7569,30.0,23.1,11111222
QuarterNorth,ioos:station:wmo:42866:2,2023-05-01T01:26:00Z,28.0188,-88.7569,30.0,23.1,11111222
QuarterNorth,ioos:station:wmo:42866:2,2023-05-01T01:35:00Z,28.0188,-88.7569,30.0,23.1,11111222
QuarterNorth,ioos:station:wmo:42866:2,2023-05-01T01:46:00Z,28.0188,-88.7569,30.0,23.1,11111222
QuarterNorth,ioos:station:wmo:42866:2,2023-05-01T01:56:00Z,28.0188,-88.7569,30.0,23.1,11111222
QuarterNorth,ioos:station:wmo:42866:2,2023-05-01T02:05:00Z,28.0188,-88.7569,30.0,23.1,11111222
QuarterNorth,ioos:station:wmo:42866:2,2023-05-01T02:15:00Z,28.0188,-88.7569,30.0,23.1,11111222
QuarterNorth,ioos:station:wmo:42866:2,2023-05-01T02:26:00Z,28.0188,-88.7569,30.0,23.1,11111222
QuarterNorth,ioos:station:wmo:42866:2,2023-05-01T02:36:00Z,28.0188,-88.7569,30.0,23.1,11111222
QuarterNorth,ioos:station:wmo:42866:2,2023-05-01T02:45:00Z,28.0188,-88.7569,30.0,23.1,11111222
QuarterNorth,ioos:station:wmo:42866:2,2023-05-01T02:55:00Z,28.0188,-88.7569,30.0,23.1,11111222
QuarterNorth,ioos:station:wmo:42866:2,2023-05-01T03:06:00Z,28.0188,-88.7569,30.0,23.1,11111222
QuarterNorth,ioos:station:wmo:42866:2,2023-05-01T03:16:00Z,28.0188,-88.7569,30.0,23.1,11111222
QuarterNorth,ioos:station:wmo:42866:2,2023-05-01T03:26:00Z,28.0188,-88.7569,30.0,23.1,11111222
QuarterNorth,ioos:station:wmo:42866:2,2023-05-01T03:35:00Z,28.0188,-88.7569,30.0,23.1,11111222
QuarterNorth,ioos:station:wmo:42866:2,2023-05-01T03:46:00Z,28.0188,-88.7569,30.0,23.1,11111222
QuarterNorth,ioos:station:wmo:42866:2,2023-05-01T03:56:00Z,28.0188,-88.7569,30.0,23.1,11111222
QuarterNorth,ioos:station:wmo:42866:2,2023-05-01T04:06:00Z,28.0188,-88.7569,30.0,23.1,11111222
QuarterNorth,ioos:station:wmo:42866:2,2023-05-01T04:16:00Z,28.0188,-88.7569,30.0,23.1,11111222
QuarterNorth,ioos:station:wmo:42866:2,2023-05-01T04:26:00Z,28.0188,-88.7569,30.0,23.1,11111222
QuarterNorth,ioos:station:wmo:42866:2,2023-05-01T04:36:00Z,28.0188,-88.7569,30.0,23.1,11111222
QuarterNorth,ioos:station:wmo:42866:2,2023-05-01T04:46:00Z,28.0188,-88.7569,30.0,23.2,11111222
QuarterNorth,ioos:station:wmo:42866:2,2023-05-01T04:56:00Z,28.0188,-88.7569,30.0,23.1,11111222
QuarterNorth,ioos:station:wmo:42866:2,2023-05-01T05:05:00Z,28.0188,-88.7569,30.0,23.1,11111222
QuarterNorth,ioos:station:wmo:42866:2,2023-05-01T05:16:00Z,28.0188,-88.7569,30.0,23.1,11111222
QuarterNorth,ioos:station:wmo:42866:2,2023-05-01T05:26:00Z,28.0188,-88.7569,30.0,23.1,11111222
QuarterNorth,ioos:station:wmo:42866:2,2023-05-01T05:36:00Z,28.0188,-88.7569,30.0,23.1,11111222
QuarterNorth,ioos:station:wmo:42866:2,2023-05-01T05:46:00Z,28.0188,-88.7569,30.0,23.1,11111222
QuarterNorth,ioos:station:wmo:42866:2,2023-05-01T05:56:00Z,28.0188,-88.7569,30.0,23.1,11111222
QuarterNorth,ioos:station:wmo:42866:2,2023-05-01T06:05:00Z,28.0188,-88.7569,30.0,23.2,11111222
QuarterNorth,ioos:station:wmo:42866:2,2023-05-01T06:16:00Z,28.0188,-88.7569,30.0,23.2,11111222
QuarterNorth,ioos:station:wmo:42866:2,2023-05-01T06:26:00Z,28.0188,-88.7569,30.0,23.3,11111222
QuarterNorth,ioos:station:wmo:42866:2,2023-05-01T06:35:00Z,28.0188,-88.7569,30.0,23.3,11111222
QuarterNorth,ioos:station:wmo:42866:2,2023-05-01T06:45:00Z,28.0188,-88.7569,30.0,23.3,11111222
QuarterNorth,ioos:station:wmo:42866:2,2023-05-01T06:56:00Z,28.0188,-88.7569,30.0,23.2,11111222
QuarterNorth,ioos:station:wmo:42866:2,2023-05-01T07:06:00Z,28.0188,-88.7569,30.0,23.3,11111222
QuarterNorth,ioos:station:wmo:42866:2,2023-05-01T07:15:00Z,28.0188,-88.7569,30.0,23.2,11111222
QuarterNorth,ioos:station:wmo:42866:2,2023-05-01T07:25:00Z,28.0188,-88.7569,30.0,23.2,11111222
QuarterNorth,ioos:station:wmo:42866:2,2023-05-01T07:36:00Z,28.0188,-88.7569,30.0,23.2,11111222
QuarterNorth,ioos:station:wmo:42866:2,2023-05-01T07:46:00Z,28.0188,-88.7569,30.0,23.2,11111222
QuarterNorth,ioos:station:wmo:42866:2,2023-05-01T07:56:00Z,28.0188,-88.7569,30.0,23.2,11111222
QuarterNorth,ioos:station:wmo:42866:2,2023-05-01T08:05:00Z,28.0188,-88.7569,30.0,23.2,11111222
QuarterNorth,ioos:station:wmo:42866:2,2023-05-01T08:06:00Z,28.0188,-88.7569,30.0,23.2,11111222
QuarterNorth,ioos:station:wmo:42866:2,2023-05-01T08:26:00Z,28.0188,-88.7569,30.0,23.2,11111222
QuarterNorth,ioos:station:wmo:42866:2,2023-05-01T08:36:00Z,28.0188,-88.7569,30.0,23.1,11111222
QuarterNorth,ioos:station:wmo:42866:2,2023-05-01T08:45:00Z,28.0188,-88.7569,30.0,23.1,11111222
QuarterNorth,ioos:station:wmo:42866:2,2023-05-01T08:55:00Z,28.0188,-88.7569,30.0,23.1,11111222
QuarterNorth,ioos:station:wmo:42866:2,2023-05-01T09:05:00Z,28.0188,-88.7569,30.0,23.1,11111222
QuarterNorth,ioos:station:wmo:42866:2,2023-05-01T09:16:00Z,28.0188,-88.7569,30.0,23.1,11111222
QuarterNorth,ioos:station:wmo:42866:2,2023-05-01T09:26:00Z,28.0188,-88.7569,30.0,23.1,11111222
QuarterNorth,ioos:station:wmo:42866:2,2023-05-01T09:35:00Z,28.0188,-88.7569,30.0,23.1,11111222
QuarterNorth,ioos:station:wmo:42866:2,2023-05-01T09:45:00Z,28.0188,-88.7569,30.0,23.1,11111222
QuarterNorth,ioos:station:wmo:42866:2,2023-05-01T09:56:00Z,28.0188,-88.7569,30.0,23.1,11111222
QuarterNorth,ioos:station:wmo:42866:2,2023-05-01T10:06:00Z,28.0188,-88.7569,30.0,23.1,11111222
QuarterNorth,ioos:station:wmo:42866:2,2023-05-01T10:15:00Z,28.0188,-88.7569,30.0,23.0,11111222
QuarterNorth,ioos:station:wmo:42866:2,2023-05-01T10:25:00Z,28.0188,-88.7569,30.0,23.0,11111222
QuarterNorth,ioos:station:wmo:42866:2,2023-05-01T10:35:00Z,28.0188,-88.7569,30.0,23.0,11111222
QuarterNorth,ioos:station:wmo:42866:2,2023-05-01T10:46:00Z,28.0188,-88.7569,30.0,23.0,11111222
QuarterNorth,ioos:station:wmo:42866:2,2023-05-01T10:56:00Z,28.0188,-88.7569,30.0,23.0,11111222
QuarterNorth,ioos:station:wmo:42866:2,2023-05-01T11:05:00Z,28.0188,-88.7569,30.0,23.1,11111222
QuarterNorth,ioos:station:wmo:42866:2,2023-05-01T11:15:00Z,28.0188,-88.7569,30.0,23.1,11111222
QuarterNorth,ioos:station:wmo:42866:2,2023-05-01T11:26:00Z,28.0188,-88.7569,30.0,23.0,11111222
QuarterNorth,ioos:station:wmo:42866:2,2023-05-01T11:36:00Z,28.0188,-88.7569,30.0,23.1,11111222
QuarterNorth,ioos:station:wmo:42866:2,2023-05-01T11:46:00Z,28.0188,-88.7569,30.0,23.1,11111222
QuarterNorth,ioos:station:wmo:42866:2,2023-05-01T11:55:00Z,28.0188,-88.7569,30.0,23.1,11111222
QuarterNorth,ioos:station:wmo:42866:2,2023-05-01T12:06:00Z,28.0188,-88.7569,30.0,23.1,11111222
QuarterNorth,ioos:station:wmo:42866:2,2023-05-01T12:16:00Z,28.0188,-88.7569,30.0,23.1,11111222
QuarterNorth,ioos:station:wmo:42866:2,2023-05-01T12:25:00Z,28.0188,-88.7569,30.0,23.0,11111222
QuarterNorth,ioos:station:wmo:42866:2,2023-05-01T12:35:00Z,28.0188,-88.7569,30.0,23.0,11111222
QuarterNorth,ioos:station:wmo:42866:2,2023-05-01T12:46:00Z,28.0188,-88.7569,30.0,23.0,11111222
QuarterNorth,ioos:station:wmo:42866:2,2023-05-01T12:56:00Z,28.0188,-88.7569,30.0,23.0,11111222
QuarterNorth,ioos:station:wmo:42866:2,2023-05-01T13:06:00Z,28.0188,-88.7569,30.0,23.0,11111222
QuarterNorth,ioos:station:wmo:42866:2,2023-05-01T13:15:00Z,28.0188,-88.7569,30.0,23.0,11111222
QuarterNorth,ioos:station:wmo:42866:2,2023-05-01T13:25:00Z,28.0188,-88.7569,30.0,23.0,11111222
QuarterNorth,ioos:station:wmo:42866:2,2023-05-01T13:36:00Z,28.0188,-88.7569,30.0,23.0,11111222
QuarterNorth,ioos:station:wmo:42866:2,2023-05-01T13:46:00Z,28.0188,-88.7569,30.0,23.0,11111222
QuarterNorth,ioos:station:wmo:42866:2,2023-05-01T13:55:00Z,28.0188,-88.7569,30.0,23.1,11111222
QuarterNorth,ioos:station:wmo:42866:2,2023-05-01T13:56:00Z,28.0188,-88.7569,30.0,23.1,11111222
QuarterNorth,ioos:station:wmo:42866:2,2023-05-01T14:16:00Z,28.0188,-88.7569,30.0,23.0,11111222
QuarterNorth,ioos:station:wmo:42866:2,2023-05-01T14:25:00Z,28.0188,-88.7569,30.0,23.1,11111222
QuarterNorth,ioos:station:wmo:42866:2,2023-05-01T14:35:00Z,28.0188,-88.7569,30.0,23.1,11111222
QuarterNorth,ioos:station:wmo:42866:2,2023-05-01T14:46:00Z,28.0188,-88.7569,30.0,23.1,11111222
QuarterNorth,ioos:station:wmo:42866:2,2023-05-01T14:56:00Z,28.0188,-88.7569,30.0,23.1,11111222
QuarterNorth,ioos:station:wmo:42866:2,2023-05-01T15:05:00Z,28.0188,-88.7569,30.0,23.2,11111222
QuarterNorth,ioos:station:wmo:42866:2,2023-05-01T15:16:00Z,28.0188,-88.7569,30.0,23.1,11111222
QuarterNorth,ioos:station:wmo:42866:2,2023-05-01T15:26:00Z,28.0188,-88.7569,30.0,23.1,11111222
QuarterNorth,ioos:station:wmo:42866:2,2023-05-01T15:35:00Z,28.0188,-88.7569,30.0,23.0,11111222
QuarterNorth,ioos:station:wmo:42866:2,2023-05-01T15:45:00Z,28.0188,-88.7569,30.0,23.0,11111222
QuarterNorth,ioos:station:wmo:42866:2,2023-05-01T15:56:00Z,28.0188,-88.7569,30.0,23.0,11111222
QuarterNorth,ioos:station:wmo:42866:2,2023-05-01T16:06:00Z,28.0188,-88.7569,30.0,23.0,11111222
QuarterNorth,ioos:station:wmo:42866:2,2023-05-01T16:16:00Z,28.0188,-88.7569,30.0,23.0,11111222
QuarterNorth,ioos:station:wmo:42866:2,2023-05-01T16:25:00Z,28.0188,-88.7569,30.0,23.0,11111222
QuarterNorth,ioos:station:wmo:42866:2,2023-05-01T16:35:00Z,28.0188,-88.7569,30.0,23.0,11111222
QuarterNorth,ioos:station:wmo:42866:2,2023-05-01T16:46:00Z,28.0188,-88.7569,30.0,23.0,11111222
QuarterNorth,ioos:station:wmo:42866:2,2023-05-01T16:56:00Z,28.0188,-88.7569,30.0,23.1,11111222
QuarterNorth,ioos:station:wmo:42866:2,2023-05-01T17:05:00Z,28.0188,-88.7569,30.0,23.1,11111222
QuarterNorth,ioos:station:wmo:42866:2,2023-05-01T17:15:00Z,28.0188,-88.7569,30.0,23.1,11111222
QuarterNorth,ioos:station:wmo:42866:2,2023-05-01T17:26:00Z,28.0188,-88.7569,30.0,23.0,11111222
QuarterNorth,ioos:station:wmo:42866:2,2023-05-01T17:45:00Z,28.0188,-88.7569,30.0,23.1,11111222
QuarterNorth,ioos:station:wmo:42866:2,2023-05-01T17:55:00Z,28.0188,-88.7569,30.0,23.1,11111222
QuarterNorth,ioos:station:wmo:42866:2,2023-05-01T18:06:00Z,28.0188,-88.7569,30.0,23.1,11111222
QuarterNorth,ioos:station:wmo:42866:2,2023-05-01T18:16:00Z,28.0188,-88.7569,30.0,23.1,11111222
QuarterNorth,ioos:station:wmo:42866:2,2023-05-01T18:25:00Z,28.0188,-88.7569,30.0,23.1,11111222
QuarterNorth,ioos:station:wmo:42866:2,2023-05-01T18:35:00Z,28.0188,-88.7569,30.0,23.1,11111222
QuarterNorth,ioos:station:wmo:42866:2,2023-05-01T18:36:00Z,28.0188,-88.7569,30.0,23.1,11111222
QuarterNorth,ioos:station:wmo:42866:2,2023-05-01T18:56:00Z,28.0188,-88.7569,30.0,23.1,11111222
QuarterNorth,ioos:station:wmo:42866:2,2023-05-01T19:06:00Z,28.0188,-88.7569,30.0,23.1,11111222
QuarterNorth,ioos:station:wmo:42866:2,2023-05-01T19:15:00Z,28.0188,-88.7569,30.0,23.1,11111222
QuarterNorth,ioos:station:wmo:42866:2,2023-05-01T19:26:00Z,28.0188,-88.7569,30.0,23.1,11111222
QuarterNorth,ioos:station:wmo:42866:2,2023-05-01T19:36:00Z,28.0188,-88.7569,30.0,23.1,11111222
QuarterNorth,ioos:station:wmo:42866:2,2023-05-01T19:45:00Z,28.0188,-88.7569,30.0,23.1,11111222
QuarterNorth,ioos:station:wmo:42866:2,2023-05-01T19:56:00Z,28.0188,-88.7569,30.0,23.1,11111222
QuarterNorth,ioos:station:wmo:42866:2,2023-05-01T20:06:00Z,28.0188,-88.7569,30.0,23.1,11111222
QuarterNorth,ioos:station:wmo:42866:2,2023-05-01T20:15:00Z,28.0188,-88.7569,30.0,23.1,11111222
QuarterNorth,ioos:station:wmo:42866:2,2023-05-01T20:26:00Z,28.0188,-88.7569,30.0,23.1,11111222
QuarterNorth,ioos:station:wmo:42866:2,2023-05-01T20:36:00Z,28.0188,-88.7569,30.0,23.1,11111222
QuarterNorth,ioos:station:wmo:42866:2,2023-05-01T20:45:00Z,28.0188,-88.7569,30.0,23.1,11111222
QuarterNorth,ioos:station:wmo:42866:2,2023-05-01T20:55:00Z,28.0188,-88.7569,30.0,23.1,11111222
QuarterNorth,ioos:station:wmo:42866:2,2023-05-01T21:06:00Z,28.0188,-88.7569,30.0,23.1,11111222
QuarterNorth,ioos:station:wmo:42866:2,2023-05-01T21:16:00Z,28.0188,-88.7569,30.0,23.1,11111222
QuarterNorth,ioos:station:wmo:42866:2,2023-05-01T21:25:00Z,28.0188,-88.7569,30.0,23.1,11111222
QuarterNorth,ioos:station:wmo:42866:2,2023-05-01T21:36:00Z,28.0188,-88.7569,30.0,23.1,11111222
QuarterNorth,ioos:station:wmo:42866:2,2023-05-01T21:46:00Z,28.0188,-88.7569,30.0,23.1,11111222
QuarterNorth,ioos:station:wmo:42866:2,2023-05-01T21:56:00Z,28.0188,-88.7569,30.0,23.1,11111222
QuarterNorth,ioos:station:wmo:42866:2,2023-05-01T22:05:00Z,28.0188,-88.7569,30.0,23.1,11111222
QuarterNorth,ioos:station:wmo:42866:2,2023-05-01T22:16:00Z,28.0188,-88.7569,30.0,23.1,11111222
QuarterNorth,ioos:station:wmo:42866:2,2023-05-01T22:26:00Z,28.0188,-88.7569,30.0,23.1,11111222
QuarterNorth,ioos:station:wmo:42866:2,2023-05-01T22:35:00Z,28.0188,-88.7569,30.0,23.1,11111222
QuarterNorth,ioos:station:wmo:42866:2,2023-05-01T22:45:00Z,28.0188,-88.7569,30.0,23.1,11111222
QuarterNorth,ioos:station:wmo:42866:2,2023-05-01T22:56:00Z,28.0188,-88.7569,30.0,23.1,11111222
QuarterNorth,ioos:station:wmo:42866:2,2023-05-01T23:06:00Z,28.0188,-88.7569,30.0,23.0,11111222
QuarterNorth,ioos:station:wmo:42866:2,2023-05-01T23:16:00Z,28.0188,-88.7569,30.0,23.0,11111222
QuarterNorth,ioos:station:wmo:42866:2,2023-05-01T23:26:00Z,28.0188,-88.7569,30.0,23.0,11111222
QuarterNorth,ioos:station:wmo:42866:2,2023-05-01T23:35:00Z,28.0188,-88.7569,30.0,23.1,11111222
QuarterNorth,ioos:station:wmo:42866:2,2023-05-01T23:46:00Z,28.0188,-88.7569,30.0,23.0,11111222
QuarterNorth,ioos:station:wmo:42866:2,2023-05-01T23:56:00Z,28.0188,-88.7569,30.0,23.0,11111222
QuarterNorth,ioos:station:wmo:42866:2,2023-05-02T00:06:00Z,28.0188,-88.7569,30.0,23.0,11111222
QuarterNorth,ioos:station:wmo:42866:2,2023-05-02T00:16:00Z,28.0188,-88.7569,30.0,23.1,11111222
QuarterNorth,ioos:station:wmo:42866:2,2023-05-02T00:25:00Z,28.0188,-88.7569,30.0,23.1,11111222
QuarterNorth,ioos:station:wmo:42866:2,2023-05-02T00:35:00Z,28.0188,-88.7569,30.0,23.1,11111222
QuarterNorth,ioos:station:wmo:42866:2,2023-05-02T00:46:00Z,28.0188,-88.7569,30.0,23.1,11111222
QuarterNorth,ioos:station:wmo:42866:2,2023-05-02T00:56:00Z,28.0188,-88.7569,30.0,23.0,11111222
QuarterNorth,ioos:station:wmo:42866:2,2023-05-02T01:05:00Z,28.0188,-88.7569,30.0,23.0,11111222
QuarterNorth,ioos:station:wmo:42866:2,2023-05-02T01:16:00Z,28.0188,-88.7569,30.0,23.0,11111222
QuarterNorth,ioos:station:wmo:42866:2,2023-05-02T01:26:00Z,28.0188,-88.7569,30.0,23.0,11111222
QuarterNorth,ioos:station:wmo:42866:2,2023-05-02T01:36:00Z,28.0188,-88.7569,30.0,22.9,11111222
QuarterNorth,ioos:station:wmo:42866:2,2023-05-02T01:46:00Z,28.0188,-88.7569,30.0,22.7,11111222
QuarterNorth,ioos:station:wmo:42866:2,2023-05-02T01:55:00Z,28.0188,-88.7569,30.0,22.8,11111222
QuarterNorth,ioos:station:wmo:42866:2,2023-05-02T02:06:00Z,28.0188,-88.7569,30.0,22.8,11111222
QuarterNorth,ioos:station:wmo:42866:2,2023-05-02T02:16:00Z,28.0188,-88.7569,30.0,22.7,11111222
QuarterNorth,ioos:station:wmo:42866:2,2023-05-02T02:26:00Z,28.0188,-88.7569,30.0,22.7,11111222
QuarterNorth,ioos:station:wmo:42866:2,2023-05-02T02:35:00Z,28.0188,-88.7569,30.0,22.7,11111222
QuarterNorth,ioos:station:wmo:42866:2,2023-05-02T02:46:00Z,28.0188,-88.7569,30.0,22.7,11111222
QuarterNorth,ioos:station:wmo:42866:2,2023-05-02T02:56:00Z,28.0188,-88.7569,30.0,22.7,11111222
QuarterNorth,ioos:station:wmo:42866:2,2023-05-02T03:06:00Z,28.0188,-88.7569,30.0,22.7,11111222
QuarterNorth,ioos:station:wmo:42866:2,2023-05-02T03:15:00Z,28.0188,-88.7569,30.0,22.6,11111222
QuarterNorth,ioos:station:wmo:42866:2,2023-05-02T03:25:00Z,28.0188,-88.7569,30.0,22.8,11111222
QuarterNorth,ioos:station:wmo:42866:2,2023-05-02T03:36:00Z,28.0188,-88.7569,30.0,22.9,11111222
QuarterNorth,ioos:station:wmo:42866:2,2023-05-02T03:46:00Z,28.0188,-88.7569,30.0,23.0,11111222
QuarterNorth,ioos:station:wmo:42866:2,2023-05-02T03:56:00Z,28.0188,-88.7569,30.0,23.0,11111222
QuarterNorth,ioos:station:wmo:42866:2,2023-05-02T04:05:00Z,28.0188,-88.7569,30.0,23.0,11111222
QuarterNorth,ioos:station:wmo:42866:2,2023-05-02T04:06:00Z,28.0188,-88.7569,30.0,23.1,11111222
QuarterNorth,ioos:station:wmo:42866:2,2023-05-02T04:26:00Z,28.0188,-88.7569,30.0,23.1,11111222
QuarterNorth,ioos:station:wmo:42866:2,2023-05-02T04:36:00Z,28.0188,-88.7569,30.0,23.1,11111222
QuarterNorth,ioos:station:wmo:42866:2,2023-05-02T04:46:00Z,28.0188,-88.7569,30.0,23.1,11111222
QuarterNorth,ioos:station:wmo:42866:2,2023-05-02T04:55:00Z,28.0188,-88.7569,30.0,23.1,11111222
QuarterNorth,ioos:station:wmo:42866:2,2023-05-02T05:05:00Z,28.0188,-88.7569,30.0,23.2,11111222
QuarterNorth,ioos:station:wmo:42866:2,2023-05-02T05:16:00Z,28.0188,-88.7569,30.0,23.2,11111222
QuarterNorth,ioos:station:wmo:42866:2,2023-05-02T05:26:00Z,28.0188,-88.7569,30.0,23.2,11111222
QuarterNorth,ioos:station:wmo:42866:2,2023-05-02T05:36:00Z,28.0188,-88.7569,30.0,23.2,11111222
QuarterNorth,ioos:station:wmo:42866:2,2023-05-02T05:45:00Z,28.0188,-88.7569,30.0,23.2,11111222
QuarterNorth,ioos:station:wmo:42866:2,2023-05-02T05:55:00Z,28.0188,-88.7569,30.0,23.2,11111222
QuarterNorth,ioos:station:wmo:42866:2,2023-05-02T06:06:00Z,28.0188,-88.7569,30.0,23.2,11111222
QuarterNorth,ioos:station:wmo:42866:2,2023-05-02T06:16:00Z,28.0188,-88.7569,30.0,23.3,11111222
QuarterNorth,ioos:station:wmo:42866:2,2023-05-02T06:25:00Z,28.0188,-88.7569,30.0,23.3,11111222
QuarterNorth,ioos:station:wmo:42866:2,2023-05-02T06:35:00Z,28.0188,-88.7569,30.0,23.3,11111222
QuarterNorth,ioos:station:wmo:42866:2,2023-05-02T06:46:00Z,28.0188,-88.7569,30.0,23.3,11111222
QuarterNorth,ioos:station:wmo:42866:2,2023-05-02T06:56:00Z,28.0188,-88.7569,30.0,23.3,11111222
QuarterNorth,ioos:station:wmo:42866:2,2023-05-02T07:06:00Z,28.0188,-88.7569,30.0,23.3,11111222
QuarterNorth,ioos:station:wmo:42866:2,2023-05-02T07:15:00Z,28.0188,-88.7569,30.0,23.3,11111222
QuarterNorth,ioos:station:wmo:42866:2,2023-05-02T07:16:00Z,28.0188,-88.7569,30.0,23.2,11111222
QuarterNorth,ioos:station:wmo:42866:2,2023-05-02T07:36:00Z,28.0188,-88.7569,30.0,23.3,11111222
QuarterNorth,ioos:station:wmo:42866:2,2023-05-02T07:45:00Z,28.0188,-88.7569,30.0,23.2,11111222
QuarterNorth,ioos:station:wmo:42866:2,2023-05-02T07:55:00Z,28.0188,-88.7569,30.0,23.3,11111222
QuarterNorth,ioos:station:wmo:42866:2,2023-05-02T08:06:00Z,28.0188,-88.7569,30.0,23.3,11111222
QuarterNorth,ioos:station:wmo:42866:2,2023-05-02T08:16:00Z,28.0188,-88.7569,30.0,23.3,11111222
QuarterNorth,ioos:station:wmo:42866:2,2023-05-02T08:25:00Z,28.0188,-88.7569,30.0,23.3,11111222
QuarterNorth,ioos:station:wmo:42866:2,2023-05-02T08:35:00Z,28.0188,-88.7569,30.0,23.3,11111222
QuarterNorth,ioos:station:wmo:42866:2,2023-05-02T08:46:00Z,28.0188,-88.7569,30.0,23.3,11111222
QuarterNorth,ioos:station:wmo:42866:2,2023-05-02T08:56:00Z,28.0188,-88.7569,30.0,23.3,11111222
QuarterNorth,ioos:station:wmo:42866:2,2023-05-02T09:06:00Z,28.0188,-88.7569,30.0,23.3,11111222
QuarterNorth,ioos:station:wmo:42866:2,2023-05-02T09:15:00Z,28.0188,-88.7569,30.0,23.3,11111222
QuarterNorth,ioos:station:wmo:42866:2,2023-05-02T09:26:00Z,28.0188,-88.7569,30.0,23.3,11111222
QuarterNorth,ioos:station:wmo:42866:2,2023-05-02T09:36:00Z,28.0188,-88.7569,30.0,23.3,11111222
QuarterNorth,ioos:station:wmo:42866:2,2023-05-02T09:46:00Z,28.0188,-88.7569,30.0,23.2,11111222
QuarterNorth,ioos:station:wmo:42866:2,2023-05-02T09:55:00Z,28.0188,-88.7569,30.0,23.2,11111222
QuarterNorth,ioos:station:wmo:42866:2,2023-05-02T10:05:00Z,28.0188,-88.7569,30.0,23.2,11111222
QuarterNorth,ioos:station:wmo:42866:2,2023-05-02T10:06:00Z,28.0188,-88.7569,30.0,23.2,11111222
QuarterNorth,ioos:station:wmo:42866:2,2023-05-02T10:26:00Z,28.0188,-88.7569,30.0,23.2,11111222
QuarterNorth,ioos:station:wmo:42866:2,2023-05-02T10:35:00Z,28.0188,-88.7569,30.0,23.2,11111222
QuarterNorth,ioos:station:wmo:42866:2,2023-05-02T10:45:00Z,28.0188,-88.7569,30.0,23.1,11111222
QuarterNorth,ioos:station:wmo:42866:2,2023-05-02T10:56:00Z,28.0188,-88.7569,30.0,23.2,11111222
QuarterNorth,ioos:station:wmo:42866:2,2023-05-02T11:06:00Z,28.0188,-88.7569,30.0,23.2,11111222
QuarterNorth,ioos:station:wmo:42866:2,2023-05-02T11:15:00Z,28.0188,-88.7569,30.0,23.2,11111222
QuarterNorth,ioos:station:wmo:42866:2,2023-05-02T11:25:00Z,28.0188,-88.7569,30.0,23.2,11111222
QuarterNorth,ioos:station:wmo:42866:2,2023-05-02T11:36:00Z,28.0188,-88.7569,30.0,23.2,11111222
QuarterNorth,ioos:station:wmo:42866:2,2023-05-02T11:46:00Z,28.0188,-88.7569,30.0,23.2,11111222
QuarterNorth,ioos:station:wmo:42866:2,2023-05-02T11:55:00Z,28.0188,-88.7569,30.0,23.2,11111222
QuarterNorth,ioos:station:wmo:42866:2,2023-05-02T12:05:00Z,28.0188,-88.7569,30.0,23.2,11111222
QuarterNorth,ioos:station:wmo:42866:2,2023-05-02T12:16:00Z,28.0188,-88.7569,30.0,23.2,11111222
QuarterNorth,ioos:station:wmo:42866:2,2023-05-02T12:26:00Z,28.0188,-88.7569,30.0,23.2,11111222
QuarterNorth,ioos:station:wmo:42866:2,2023-05-02T12:35:00Z,28.0188,-88.7569,30.0,23.2,11111222
QuarterNorth,ioos:station:wmo:42866:2,2023-05-02T12:45:00Z,28.0188,-88.7569,30.0,23.2,11111222
QuarterNorth,ioos:station:wmo:42866:2,2023-05-02T12:55:00Z,28.0188,-88.7569,30.0,23.2,11111222
QuarterNorth,ioos:station:wmo:42866:2,2023-05-02T13:06:00Z,28.0188,-88.7569,30.0,23.2,11111222
QuarterNorth,ioos:station:wmo:42866:2,2023-05-02T13:16:00Z,28.0188,-88.7569,30.0,23.2,11111222
QuarterNorth,ioos:station:wmo:42866:2,2023-05-02T13:25:00Z,28.0188,-88.7569,30.0,23.2,11111222
QuarterNorth,ioos:station:wmo:42866:2,2023-05-02T13:35:00Z,28.0188,-88.7569,30.0,23.2,11111222
QuarterNorth,ioos:station:wmo:42866:2,2023-05-02T13:46:00Z,28.0188,-88.7569,30.0,23.2,11111222
QuarterNorth,ioos:station:wmo:42866:2,2023-05-02T13:56:00Z,28.0188,-88.7569,30.0,23.2,11111222
QuarterNorth,ioos:station:wmo:42866:2,2023-05-02T14:05:00Z,28.0188,-88.7569,30.0,23.2,11111222
QuarterNorth,ioos:station:wmo:42866:2,2023-05-02T14:16:00Z,28.0188,-88.7569,30.0,23.2,11111222
QuarterNorth,ioos:station:wmo:42866:2,2023-05-02T14:26:00Z,28.0188,-88.7569,30.0,23.2,11111222
QuarterNorth,ioos:station:wmo:42866:2,2023-05-02T14:35:00Z,28.0188,-88.7569,30.0,23.2,11111222
QuarterNorth,ioos:station:wmo:42866:2,2023-05-02T14:46:00Z,28.0188,-88.7569,30.0,23.2,11111222
QuarterNorth,ioos:station:wmo:42866:2,2023-05-02T14:56:00Z,28.0188,-88.7569,30.0,23.2,11111222
QuarterNorth,ioos:station:wmo:42866:2,2023-05-02T15:05:00Z,28.0188,-88.7569,30.0,23.2,11111222
QuarterNorth,ioos:station:wmo:42866:2,2023-05-02T15:16:00Z,28.0188,-88.7569,30.0,23.2,11111222
QuarterNorth,ioos:station:wmo:42866:2,2023-05-02T15:26:00Z,28.0188,-88.7569,30.0,23.2,11111222
QuarterNorth,ioos:station:wmo:42866:2,2023-05-02T15:35:00Z,28.0188,-88.7569,30.0,23.3,11111222
QuarterNorth,ioos:station:wmo:42866:2,2023-05-02T15:45:00Z,28.0188,-88.7569,30.0,23.2,11111222
QuarterNorth,ioos:station:wmo:42866:2,2023-05-02T15:56:00Z,28.0188,-88.7569,30.0,23.2,11111222
QuarterNorth,ioos:station:wmo:42866:2,2023-05-02T16:06:00Z,28.0188,-88.7569,30.0,23.2,11111222
QuarterNorth,ioos:station:wmo:42866:2,2023-05-02T16:16:00Z,28.0188,-88.7569,30.0,23.2,11111222
QuarterNorth,ioos:station:wmo:42866:2,2023-05-02T16:25:00Z,28.0188,-88.7569,30.0,23.2,11111222
QuarterNorth,ioos:station:wmo:42866:2,2023-05-02T16:35:00Z,28.0188,-88.7569,30.0,23.2,11111222
QuarterNorth,ioos:station:wmo:42866:2,2023-05-02T16:46:00Z,28.0188,-88.7569,30.0,23.2,11111222
QuarterNorth,ioos:station:wmo:42866:2,2023-05-02T16:56:00Z,28.0188,-88.7569,30.0,23.2,11111222
QuarterNorth,ioos:station:wmo:42866:2,2023-05-02T17:05:00Z,28.0188,-88.7569,30.0,23.2,11111222
QuarterNorth,ioos:station:wmo:42866:2,2023-05-02T17:15:00Z,28.0188,-88.7569,30.0,23.2,11111222
QuarterNorth,ioos:station:wmo:42866:2,2023-05-02T17:26:00Z,28.0188,-88.7569,30.0,23.2,11111222
QuarterNorth,ioos:station:wmo:42866:2,2023-05-02T17:36:00Z,28.0188,-88.7569,30.0,23.2,11111222